Regional Weather Roundup
Issued by NWS

Home | Current Version | Previous Version | Graphics & Text | Print | Product List | Glossary On
Versions: 1 2 3 4 5 6 7 8 9 10 11 12 13 14 15 16 17 18 19 20 21 22 23 24 25 26 27 28 29 30 31 32 33 34 35 36 37 38 39 40 41 42 43 44 45 46 47 48 49 50
000
ASUS44 KMEG 271500
RWRTN
TENNESSEE HOURLY STATE WEATHER ROUNDUP
NATIONAL WEATHER SERVICE MEMPHIS TN
1000 AM CDT MON APR 27 2015

TNZ002-004-019-021-049-052-054-088>092-271600-
WEST TENNESSEE

CITY           SKY/WX    TMP DP  RH WIND       PRES   REMARKS
MEMPHIS INTL   CLOUDY    57  41  55 NE13      30.03R
NWS MEMPHIS      N/A     55 N/A N/A MISG        N/A
JACKSON        CLOUDY    55  42  61 NE6       30.05R
DYERSBURG      CLOUDY    55  34  44 NE10      30.08R
UNION CITY     SUNNY     55  32  41 NE12      30.06R
PARIS          SUNNY     55  39  54 NE12      30.05R
LEXINGTON      SUNNY     54  41  62 N5        30.04R
SAVANNAH       SUNNY     57  32  38 VRB5      30.03R
$$

TNZ008-025-027-028-033-062-065-066-271600-
NORTH MIDDLE TENNESSEE

CITY           SKY/WX    TMP DP  RH WIND       PRES   REMARKS
NASHVILLE      MOSUNNY   59  39  47 NE7       30.02S
CLARKSVILLE    SUNNY     58  40  51 NE9       30.04S
COOKEVILLE     SUNNY     55  39  54 NE8       29.98F
CROSSVILLE     SUNNY     53  33  46 NE12      29.99R
$$

TNZ061-075-076-078-094-096-097-271600-
SOUTH MIDDLE TENNESSEE

CITY           SKY/WX    TMP DP  RH WIND       PRES   REMARKS
FAYETTEVILLE   SUNNY     54  43  66 NE10      29.99R
TULLAHOMA      SUNNY     54  39  58 N7        30.00R
WINCHESTER     SUNNY     54  45  71 N7        29.98S
MCMINNVILLE    SUNNY     55  45  67 NE10      29.99S
COLUMBIA       SUNNY     57  32  38 NE9       30.00R
SHELBYVILLE    SUNNY     57  43  58 NE8       30.00R
$$

TNZ017-018-042-046-047-271600-
NORTHEAST TENNESSEE

CITY           SKY/WX    TMP DP  RH WIND       PRES   REMARKS
TRI CITIES     MOSUNNY   55  34  45 N8        29.94R
ELIZABETHTON   MOSUNNY   52  34  50 VRB5      29.93S
$$

TNZ012-013-036-069-073-074-271600-
CENTRAL EAST TENNESSEE

CITY           SKY/WX    TMP DP  RH WIND       PRES   REMARKS
KNOXVILLE      MOSUNNY   57  34  41 N9G20     29.95R
OAK RIDGE      SUNNY     59  34  39 VRB3      29.98R
GATLINBURG     MOSUNNY   55  36  47 NE5       29.96R
$$

TNZ083-085-099-271600-
SOUTHEAST TENNESSEE

CITY           SKY/WX    TMP DP  RH WIND       PRES   REMARKS
CHATTANOOGA    MOSUNNY   60  41  49 N10       29.97S
$$

SKY/WX REPORTED AS FAIR MEANS FEW OR NO CLOUDS BELOW
12 THOUSAND FEET.



USA.gov is the U.S. government's official web portal to all federal, state and local government web resources and services.